Station KGCA2 - 9459881 - King Cove, AK Image indicating link to RSS feed of recent meteorological observations for station KGCA2


Conditions at KGCA2 as of
(10:30 am AKDT)
1830 GMT on 04/17/2024:
     

Click on the graph icon in the table below to see a time series plot of the last five days of that observation.

5-day plot - Wind Direction Wind Direction (WDIR):NNW ( 330 deg true )
5-day plot - Wind Speed Wind Speed (WSPD): 21.0 kts
5-day plot - Wind Gust Wind Gust (GST): 28.9 kts
5-day plot - Atmospheric Pressure Atmospheric Pressure (PRES):29.42 in
5-day plot - Air Temperature Air Temperature (ATMP): 36.3 °F
5-day plot - Water Temperature Water Temperature (WTMP): 36.7 °F
5-day plot - Wind Chill Wind Chill (CHILL): 24.6 °F
5-day plot - Wind Speed at 10 Meters Wind Speed at 10 meters (WSPD10M): 21.4 kts
5-day plot - Wind Speed at 20 Meters Wind Speed at 20 meters (WSPD20M): 23.3 kts
5-day plot -  Wind Speed, Wind Gust and Atmospheric Pressure Combined plot of Wind Speed, Gust, and Air Pressure
NOS Water Level Observation Network Water Level
Previous observations
TIME
(AKDT)
5-day plot - Wind Direction
WDIR
 
5-day plot - Wind Speed
WSPD
kts
5-day plot - Wind Gust
GST
kts
5-day plot - Wave Height
WVHT
ft
5-day plot - Dominant Wave Period
DPD
sec
5-day plot - Average Wave Period
APD
sec
5-day plot - Mean Wave Direction
MWD
 
5-day plot - Atmospheric Pressure
PRES
in
5-day plot - Pressure Tendency
PTDY
in
5-day plot - Air Temperature
ATMP
°F
5-day plot - Water Temperature
WTMP
°F
5-day plot - Dew Point
DEWP
°F
5-day plot - Salinity
SAL
psu
5-day plot - Visibility
VIS
nmi
5-day plot - Tide (above MLLW)
TIDE
ft
2024-04-17 10:24 am NW 21.0 28.0----29.42- 36.1 36.7----
2024-04-17 10:18 am NW 21.0 28.0----29.42- 36.1 36.7----
2024-04-17 10:12 amNNW 24.1 28.9----29.42- 35.6 36.7----
2024-04-17 10:06 am NW 21.0 28.9----29.42- 36.0 36.7----
2024-04-17 10:00 amNNW 20.0 28.9----29.43-0.03 35.4 36.7----
2024-04-17 09:54 amNNW 19.0 26.0----29.43- 35.8 36.7----
2024-04-17 09:48 am NW 22.0 28.9----29.43- 36.1 36.7----
2024-04-17 09:42 amNNW 19.0 26.0----29.43- 36.3 36.7----
2024-04-17 09:36 amNNW 18.1 25.1----29.43- 36.9 36.7----
2024-04-17 09:30 amNNW 19.0 25.1----29.43- 36.3 36.7----
2024-04-17 09:24 am NW 19.0 26.0----29.43- 36.3 36.7----
2024-04-17 09:18 am NW 18.1 22.9----29.43- 37.2 36.7----
2024-04-17 09:12 am NW 17.1 22.9----29.43- 36.9 36.7----
2024-04-17 09:06 amNNW 19.0 25.1----29.43- 37.4 36.7----
2024-04-17 09:00 am NW 15.0 22.9----29.43-0.05 37.6 36.7----
2024-04-17 08:54 am NW 15.9 22.0----29.43- 37.9 36.7----
2024-04-17 08:48 am NW 15.9 21.0----29.43- 37.6 36.7----
2024-04-17 08:42 am NW 18.1 22.0----29.43- 37.9 36.7----
2024-04-17 08:36 am NW 17.1 21.0----29.43- 38.1 36.7----
2024-04-17 08:30 am NW 15.9 22.9----29.43- 37.8 36.7----
2024-04-17 08:24 am NW 18.1 22.9----29.43- 37.6 36.7----
2024-04-17 08:18 am NW 17.1 22.9----29.44- 37.6 36.7----
2024-04-17 08:12 am NW 18.1 22.9----29.44- 37.4 36.7----
2024-04-17 08:06 amNNW 18.1 22.0----29.44- 36.9 36.7----
2024-04-17 08:00 amNNW 15.0 21.0----29.44-0.06 37.0 36.7----
2024-04-17 07:54 amNNW 12.0 15.9----29.44- 37.4 36.7----
2024-04-17 07:48 am NW 12.0 21.0----29.44- 38.1 36.7----
2024-04-17 07:42 am NW 15.9 20.0----29.44- 38.1 36.7----
2024-04-17 07:36 am NW 15.9 22.9----29.44- 38.5 36.7----
2024-04-17 07:30 am NW 17.1 21.0----29.44- 38.1 36.7----
2024-04-17 07:24 am NW 17.1 22.9----29.45- 38.3 36.7----
2024-04-17 07:18 am NW 19.0 22.9----29.45- 37.6 36.7----
2024-04-17 07:12 am NW 18.1 21.0----29.45- 37.0 36.7----
2024-04-17 07:06 am NW 15.9 19.0----29.46- 37.4 36.7----
2024-04-17 07:00 am NW 15.9 21.0----29.46-0.07 38.1 36.7----
2024-04-17 06:54 am NW 15.9 21.0----29.46- 37.4 36.7----
2024-04-17 06:48 am NW 15.0 21.0----29.47- 37.6 36.7----
2024-04-17 06:42 am NW 11.1 13.0----29.47- 38.3 36.7----
2024-04-17 06:36 amNNW 8.9 13.0----29.47- 38.1 36.7----
2024-04-17 06:30 amNNW 7.0 15.0----29.47- 38.5 36.7----
2024-04-17 06:24 am NW 12.0 15.0----29.47- 37.2 36.7----
2024-04-17 06:18 amNNW 7.0 17.1----29.48- 38.5 36.7----
2024-04-17 06:12 amNNW 8.0 13.0----29.48- 38.1 36.7----
2024-04-17 06:06 am N 8.0 13.0----29.48- 37.6 36.7----
2024-04-17 06:00 am N 9.9 12.0----29.48-0.07 37.6 36.7----
2024-04-17 05:54 am N 9.9 11.1----29.49- 37.2 36.7----
2024-04-17 05:48 am N 8.0 11.1----29.49- 38.3 36.7----
2024-04-17 05:42 am N 7.0 9.9----29.49- 37.9 36.7----
2024-04-17 05:36 am N 7.0 13.0----29.49- 37.6 36.7----
2024-04-17 05:30 am N 7.0 9.9----29.49- 37.6 36.7----
2024-04-17 05:24 amNNW 8.0 11.1----29.49- 37.6 36.7----
2024-04-17 05:18 am N 8.0 11.1----29.50- 37.0 36.7----
2024-04-17 05:12 am N 6.0 9.9----29.50- 37.8 36.7----
2024-04-17 05:06 amNNW 8.9 12.0----29.50- 37.6 36.7----
2024-04-17 05:00 amNNW 8.0 11.1----29.50-0.07 37.6 36.7----
2024-04-17 04:54 am N 8.0 11.1----29.50- 37.6 36.7----
2024-04-17 04:48 am N 8.9 13.0----29.51- 37.2 36.7----
2024-04-17 04:42 am N 9.9 13.0----29.51- 37.2 36.7----
2024-04-17 04:36 am N 8.9 13.0----29.51- 37.0 36.7----
2024-04-17 04:30 am N 9.9 14.0----29.51- 37.0 36.7----
2024-04-17 04:24 am N 8.9 12.0----29.52- 36.7 36.7----
2024-04-17 04:18 am N 8.0 13.0----29.52- 36.7 36.7----
2024-04-17 04:12 am N 8.9 12.0----29.52- 36.5 36.7----
2024-04-17 04:06 am N 11.1 12.0----29.52- 36.3 36.7----
2024-04-17 04:00 am N 8.9 11.1----29.53-0.07 36.3 36.7----
2024-04-17 03:54 am N 9.9 12.0----29.53- 36.1 36.7----
2024-04-17 03:48 am N 8.9 14.0----29.53- 36.3 36.7----
2024-04-17 03:42 am N 12.0 15.0----29.53- 36.1 36.7----
2024-04-17 03:36 am N 8.9 13.0----29.54- 36.1 36.7----
2024-04-17 03:30 am N 9.9 13.0----29.54- 36.1 36.7----
2024-04-17 03:24 am N 11.1 13.0----29.54- 36.0 36.7----
2024-04-17 03:18 am N 9.9 14.0----29.54- 36.3 36.7----
2024-04-17 03:12 am N 8.0 12.0----29.55- 36.1 36.7----
2024-04-17 03:06 am N 8.9 13.0----29.55- 36.3 36.7----
2024-04-17 03:00 am N 9.9 12.0----29.55-0.07 36.1 36.7----
2024-04-17 02:54 am N 7.0 14.0----29.55- 36.1 36.7----
2024-04-17 02:48 am N 9.9 15.9----29.56- 36.3 36.7----
2024-04-17 02:42 am N 8.0 13.0----29.56- 36.1 36.7----
2024-04-17 02:36 amNNE 9.9 18.1----29.56- 36.3 36.7----
2024-04-17 02:30 amNNE 9.9 15.0----29.57- 36.3 36.7----
2024-04-17 02:24 am N 8.9 14.0----29.57- 36.0 36.7----
2024-04-17 02:18 am N 8.0 14.0----29.57- 35.8 36.7----
2024-04-17 02:12 am N 12.0 17.1----29.57- 36.0 36.7----
2024-04-17 02:06 amNNE 9.9 17.1----29.57- 35.8 36.7----
2024-04-17 02:00 amNNE 15.9 19.0----29.57-0.06 36.0 36.7----
2024-04-17 01:54 amNNE 12.0 15.9----29.58- 35.6 36.7----
2024-04-17 01:48 amNNE 14.0 22.0----29.58- 35.6 36.7----
2024-04-17 01:42 amNNE 14.0 17.1----29.58- 35.8 36.7----
2024-04-17 01:36 amNNE 15.0 19.0----29.58- 35.8 36.7----
2024-04-17 01:30 am N 14.0 20.0----29.58- 35.6 36.7----
2024-04-17 01:24 amNNE 15.0 18.1----29.59- 35.6 36.7----
2024-04-17 01:18 am N 14.0 17.1----29.59- 35.4 36.7----
2024-04-17 01:12 am N 12.0 15.9----29.59- 35.2 36.7----
2024-04-17 01:06 am N 12.0 18.1----29.59- 35.4 36.7----
2024-04-17 01:00 am NE 11.1 15.0----29.59-0.05 35.2 36.9----
2024-04-17 12:54 am N 12.0 22.0----29.59- 35.1 36.9----
2024-04-17 12:48 am N 15.9 20.0----29.60- 35.2 36.9----
2024-04-17 12:42 am N 17.1 20.0----29.60- 35.4 36.9----
2024-04-17 12:36 amNNE 15.0 20.0----29.60- 35.2 36.9----
2024-04-17 12:30 am N 12.0 17.1----29.60- 35.1 36.9----
2024-04-17 12:24 amNNE 13.0 18.1----29.61- 35.2 36.9----
2024-04-17 12:18 am N 12.0 15.9----29.61- 35.1 36.9----
2024-04-17 12:12 amNNE 12.0 17.1----29.61- 35.2 36.9----
2024-04-17 12:06 amNNE 12.0 19.0----29.62- 35.2 36.9----
2024-04-17 12:00 amNNE 14.0 19.0----29.62-0.04 35.2 36.7----
2024-04-16 11:54 pmNNE 15.9 18.1----29.62- 35.1 36.9----
2024-04-16 11:48 pmNNE 15.9 21.0----29.62- 35.2 36.9----
2024-04-16 11:42 pmNNE 15.9 20.0----29.62- 35.2 36.9----
2024-04-16 11:36 pm N 12.0 18.1----29.62- 35.2 36.9----
2024-04-16 11:30 pmNNE 15.0 19.0----29.63- 35.4 36.9----
2024-04-16 11:24 pmNNE 13.0 19.0----29.63- 35.2 36.9----
2024-04-16 11:18 pmNNE 14.0 21.0----29.63- 35.2 36.9----
2024-04-16 11:12 pmNNE 13.0 20.0----29.63- 35.2 36.9----
2024-04-16 11:06 pmNNE 15.0 19.0----29.63- 35.2 36.9----
2024-04-16 11:00 pmNNE 14.0 19.0----29.64-0.04 35.2 36.9----
2024-04-16 10:54 pmNNE 15.0 18.1----29.64- 35.2 36.9----
2024-04-16 10:48 pmNNE 13.0 19.0----29.64- 35.1 36.9----
2024-04-16 10:42 pmNNE 14.0 19.0----29.64- 35.2 36.9----
2024-04-16 10:36 pmNNE 12.0 21.0----29.64- 35.2 36.9----
2024-04-16 10:30 pm NE 15.0 19.0----29.65- 35.4 36.9----
2024-04-16 10:24 pmNNE 15.9 21.0----29.65- 35.4 36.9----
2024-04-16 10:18 pmNNE 11.1 19.0----29.65- 35.4 36.9----
2024-04-16 10:12 pmNNE 12.0 18.1----29.65- 35.6 36.9----
2024-04-16 10:06 pm NE 13.0 18.1----29.65- 35.6 36.9----
2024-04-16 10:00 pmNNE 12.0 20.0----29.65-0.04 35.6 36.9----
2024-04-16 09:54 pmNNE 11.1 17.1----29.65- 35.4 36.9----
2024-04-16 09:48 pmNNE 12.0 15.9----29.65- 35.4 36.9----
2024-04-16 09:42 pmNNE 8.0 14.0----29.65- 35.4 36.9----
2024-04-16 09:36 pmNNE 12.0 17.1----29.65- 35.4 36.9----
2024-04-16 09:30 pmNNE 12.0 15.0----29.65- 35.8 36.9----
2024-04-16 09:24 pmNNE 15.0 22.0----29.65- 35.8 36.9----
2024-04-16 09:18 pmNNE 14.0 17.1----29.65- 36.0 36.9----
2024-04-16 09:12 pm NE 14.0 18.1----29.65- 36.5 36.9----
2024-04-16 09:06 pmNNE 11.1 15.0----29.65- 36.5 36.9----
2024-04-16 09:00 pmNNE 11.1 14.0----29.66-0.06 36.5 36.9----
2024-04-16 08:54 pm NE 9.9 19.0----29.66- 36.7 36.9----
2024-04-16 08:48 pmNNE 8.9 15.0----29.66- 36.5 36.9----
2024-04-16 08:42 pmNNE 11.1 14.0----29.66- 36.5 36.9----
2024-04-16 08:36 pmNNE 9.9 13.0----29.66- 36.5 36.9----
2024-04-16 08:30 pm NE 11.1 15.0----29.67- 36.3 36.9----
2024-04-16 08:24 pmNNE 8.9 13.0----29.67- 36.1 36.9----
2024-04-16 08:18 pmNNE 9.9 15.0----29.67- 36.0 36.9----
2024-04-16 08:12 pmNNE 9.9 15.9----29.67- 36.0 36.9----
2024-04-16 08:06 pmNNE 11.1 15.0----29.67- 36.1 36.9----
2024-04-16 08:00 pmNNE 9.9 13.0----29.68-0.07 36.0 36.9----
2024-04-16 07:54 pmNNE 8.9 14.0----29.68- 36.0 36.9----
2024-04-16 07:48 pmNNE 7.0 9.9----29.68- 36.0 36.9----
2024-04-16 07:42 pmNNE 8.0 11.1----29.68- 36.0 36.9----
2024-04-16 07:36 pmNNE 8.0 14.0----29.68- 35.8 36.9----
2024-04-16 07:30 pmNNE 7.0 11.1----29.69- 36.0 36.9----
2024-04-16 07:24 pm N 8.9 12.0----29.69- 36.0 36.9----
2024-04-16 07:18 pmNNE 8.0 13.0----29.69- 36.0 36.9----
2024-04-16 07:12 pmNNE 11.1 15.9----29.69- 36.0 36.9----
2024-04-16 07:06 pmNNE 12.0 18.1----29.69- 36.7 36.9----
2024-04-16 07:00 pmNNE 9.9 17.1----29.69-0.09 37.4 36.9----
2024-04-16 06:54 pmNNE 13.0 17.1----29.69- 37.6 36.9----
2024-04-16 06:48 pm N 8.0 18.1----29.70- 37.2 36.9----
2024-04-16 06:42 pmNNE 12.0 17.1----29.70- 36.9 36.9----
2024-04-16 06:36 pmNNE 12.0 15.9----29.70- 37.4 36.9----
2024-04-16 06:30 pmNNE 9.9 19.0----29.70- 37.2 36.9----
2024-04-16 06:24 pm NE 12.0 15.9----29.70- 37.6 36.9----
2024-04-16 06:18 pmNNE 12.0 17.1----29.71- 37.0 36.9----
2024-04-16 06:12 pm NE 8.9 18.1----29.71- 37.2 36.9----
2024-04-16 06:06 pm NE 8.9 14.0----29.71- 37.4 36.9----
2024-04-16 06:00 pmNNE 8.0 19.0----29.72-0.08 37.2 36.9----
2024-04-16 05:54 pm NE 6.0 15.9----29.72- 37.4 36.9----
2024-04-16 05:48 pmNNE 11.1 18.1----29.72- 37.4 36.9----
2024-04-16 05:42 pmNNE 12.0 19.0----29.72- 37.6 36.9----
2024-04-16 05:36 pmNNE 7.0 15.9----29.72- 37.6 36.9----
2024-04-16 05:30 pm NE 8.9 17.1----29.73- 37.4 36.9----
2024-04-16 05:24 pmNNE 14.0 21.0----29.73- 37.6 36.9----
2024-04-16 05:18 pm NE 8.0 19.0----29.74- 37.6 36.9----
2024-04-16 05:12 pmNNE 8.9 13.0----29.74- 37.4 36.9----
2024-04-16 05:06 pm S 4.1 15.0----29.75- 37.4 36.9----
2024-04-16 05:00 pmNNE 11.1 17.1----29.75-0.08 37.4 36.9----
2024-04-16 04:54 pmNNE 8.0 12.0----29.75- 37.4 36.9----
2024-04-16 04:48 pm E 4.1 7.0----29.75- 37.4 36.9----
2024-04-16 04:42 pm S 2.9 9.9----29.76- 37.2 36.9----
2024-04-16 04:36 pm W 5.1 8.0----29.76- 37.2 36.9----
2024-04-16 04:30 pm W 2.9 7.0----29.76- 37.0 36.9----
2024-04-16 04:24 pmSSW 6.0 15.0----29.76- 37.0 36.9----
2024-04-16 04:18 pm N 4.1 17.1----29.77- 37.4 36.9----
2024-04-16 04:12 pmNNW 8.9 12.0----29.77- 37.2 36.9----
2024-04-16 04:06 pmNNW 5.1 22.0----29.77- 37.2 36.9----
2024-04-16 04:00 pmNNW 6.0 11.1----29.78-0.07 37.6 36.9----
2024-04-16 03:54 pm NW 7.0 18.1----29.77- 37.4 36.9----
2024-04-16 03:48 pmSSE 11.1 21.0----29.77- 37.4 36.9----
2024-04-16 03:42 pm E 5.1 14.0----29.79- 37.4 36.9----
2024-04-16 03:36 pm S 9.9 15.0----29.78- 37.0 36.9----
2024-04-16 03:30 pm S 8.9 17.1----29.78- 37.0 36.9----
2024-04-16 03:24 pmSSW 8.0 19.0----29.79- 37.2 36.7----
2024-04-16 03:18 pm SE 9.9 17.1----29.79- 37.2 36.9----
2024-04-16 03:12 pmSSE 6.0 18.1----29.80- 37.2 36.9----
2024-04-16 03:06 pm W 8.9 14.0----29.80- 37.4 36.7----
2024-04-16 03:00 pmSSE 4.1 15.9----29.80-0.07 37.2-----
2024-04-16 02:54 pm SE 9.9 15.9----29.80- 37.6-----
2024-04-16 02:48 pmSSE 8.9 17.1----29.80- 37.8 36.9----
2024-04-16 02:42 pmNNW 6.0 18.1----29.80- 37.6 36.9----
2024-04-16 02:36 pmSSW 8.9 13.0----29.81- 37.4 36.9----
2024-04-16 02:30 pmWSW 5.1 21.0----29.81-- 36.7----
2024-04-16 02:24 pm SW 8.9 15.9----29.81-- 36.7----
2024-04-16 02:18 pm E 2.9 13.0----29.82-- 36.9----
2024-04-16 02:12 pm S 7.0 21.0----29.82-- 36.7----
2024-04-16 02:06 pm S 15.0 22.9----29.82-- 36.7----
2024-04-16 02:00 pmSSW 7.0 22.0----29.83-0.06 37.6 36.7----
2024-04-16 01:54 pm SW 8.9 25.1----29.83- 37.4 36.7----
2024-04-16 01:48 pm S 13.0 21.0----29.82- 37.0 36.7----
2024-04-16 01:42 pm SW 13.0 26.0----29.83- 37.2 36.7----
2024-04-16 01:36 pmSSW 12.0 34.0----29.83- 37.2 36.7----
2024-04-16 01:30 pmSSE 12.0 22.0----29.83- 37.4 36.7----
2024-04-16 01:24 pm S 11.1 33.0----29.83- 37.4 36.7----
2024-04-16 01:18 pmSSE 14.0 31.1----29.84- 37.4 36.7----
2024-04-16 01:12 pmSSE 11.1 22.0----29.84- 37.8 36.7----
2024-04-16 01:06 pmSSW 15.0 35.9----29.84- 38.1 36.7----
2024-04-16 01:00 pm S 12.0 28.0----29.84-0.07 37.9 36.7----
2024-04-16 12:54 pm S 15.0 27.0----29.84- 38.1 36.7----
2024-04-16 12:48 pm SE 15.0 32.1----29.85- 38.3 36.7----
2024-04-16 12:42 pm S 12.0 28.0----29.85- 38.1 36.7----
2024-04-16 12:36 pmSSE 20.0 41.0----29.85- 38.3 36.7----
2024-04-16 12:30 pm S 12.0 19.0----29.85- 38.1 36.7----
2024-04-16 12:24 pm S 14.0 25.1----29.86- 38.3 36.7----
2024-04-16 12:18 pmSSE 15.0 26.0----29.86- 38.3 36.7----
2024-04-16 12:12 pmSSE 13.0 26.0----29.86- 38.3 36.7----
2024-04-16 12:06 pmSSE 14.0 25.1----29.87- 38.3 36.7----
2024-04-16 12:00 pmSSE 15.0 28.9----29.87-0.06 38.3 36.7----
2024-04-16 11:54 amSSE 12.0 21.0----29.87- 38.3 36.7----
2024-04-16 11:48 am S 13.0 26.0----29.87- 38.3 36.7----
2024-04-16 11:42 amSSE 11.1 22.9----29.88- 38.3 36.7----
2024-04-16 11:36 am SE 21.0 25.1----29.88- 38.5 36.7----
2024-04-16 11:30 am SE 18.1 26.0----29.88- 38.3 36.7----
2024-04-16 11:24 am SE 18.1 26.0----29.88- 38.1 36.7----
2024-04-16 11:18 am SE 12.0 22.9----29.89- 38.1 36.7----
2024-04-16 11:12 am SE 14.0 22.0----29.89- 38.3 36.7----
2024-04-16 11:06 amESE 17.1 26.0----29.89- 38.3 36.7----
2024-04-16 11:00 amESE 15.9 25.1----29.89-0.05 38.3 36.7----
2024-04-16 10:54 amESE 18.1 24.1----29.89- 38.5 36.7----